Weather History for Port Hope, MI

Change the Weather History Date:

Tuesday, September 3, 2013

  Actual Average Record
Temperature  
Mean Temperature 66 °F -  
Max Temperature 75 °F 73 °F 79 °F (2003)
Min Temperature 57 °F 58 °F 55 °F (2006)
Cooling Degree Days 1    
Growing Degree Days 16 (Base 50)    
Moisture  
Dew Point 52 °F    
Average Humidity 64    
Maximum Humidity 80    
Minimum Humidity 38    
Precipitation  
Precipitation 0.00 in - - ()
Sea Level Pressure  
Sea Level Pressure 29.91 in    
Wind  
Wind Speed 8 mph (WNW)    
Max Wind Speed 12 mph    
Max Gust Speed 21 mph    
Averages and records for this station are not official NWS values.
T = Trace of Precipitation, MM = Missing Value Source: NWS Daily Summary

Daily Weather History Graph

Daily Weather History Graph

Search for Another Location

Airport:

Trip Planner

Search our weather history database for the weather conditions in past years. The results will help you decide how hot, cold, wet, or windy it might be!

Date:

Astronomy

Sep. 03, 2013 Rise Set
Actual Time 6:56 AM EDT 8:03 PM EDT
Civil Twilight 6:27 AM EDT 8:32 PM EDT
Nautical Twilight 5:51 AM EDT 9:07 PM EDT
Astronomical Twilight 5:14 AM EDT 9:45 PM EDT
Moon 5:07 AM EDT (9/3) 6:50 PM EDT (9/3)
Length of Visible Light 14h 05m
Length of Day
13h 06m
Waning Crescent, 3% of the Moon is Illuminated
Sep 3
Waning Crescent
Sep 5
New
Sep 12
First Quarter
Sep 19
Full
Sep 26
Last Quarter

Hourly Weather History & Observations

Time (EDT) Temp. Dew Point Humidity Pressure Visibility Wind Dir Wind Speed Gust Speed Precip Events Conditions
12:51 AM 59.0 °F 51.1 °F 75% 29.86 in - WNW 9.2 mph 18.4 mph N/A   Unknown
1:51 AM 59.0 °F 51.1 °F 75% 29.86 in - WNW 10.4 mph 18.4 mph N/A   Unknown
2:51 AM 60.1 °F 51.1 °F 72% 29.86 in - WNW 11.5 mph 19.6 mph N/A   Unknown
3:51 AM 59.0 °F 52.0 °F 78% 29.86 in - WNW 10.4 mph 20.7 mph N/A   Unknown
4:51 AM 60.1 °F 54.0 °F 80% 29.86 in - Variable 5.8 mph 19.6 mph N/A   Unknown
5:51 AM 61.0 °F 53.1 °F 75% 29.87 in - NW 8.1 mph 19.6 mph N/A   Unknown
6:51 AM 61.0 °F 54.0 °F 78% 29.88 in - NW 11.5 mph 20.7 mph N/A   Unknown
7:51 AM 61.0 °F 53.1 °F 75% 29.91 in - Calm Calm - N/A   Unknown
8:51 AM 61.0 °F 53.1 °F 75% 29.93 in - WNW 8.1 mph - N/A   Unknown
9:51 AM 62.1 °F 52.0 °F 70% 29.94 in - WNW 9.2 mph - N/A   Unknown
10:51 AM 64.9 °F 52.0 °F 63% 29.95 in - WNW 8.1 mph - N/A   Unknown
11:51 AM 66.9 °F 51.1 °F 57% 29.95 in - WNW 9.2 mph - N/A   Unknown
12:51 PM 68.0 °F 51.1 °F 55% 29.95 in - WNW 8.1 mph - N/A   Unknown
1:51 PM 70.0 °F 51.1 °F 51% 29.94 in - WNW 6.9 mph - N/A   Unknown
2:51 PM 72.0 °F 50.0 °F 46% 29.94 in - Variable 5.8 mph - N/A   Unknown
3:51 PM 73.0 °F 48.9 °F 42% 29.93 in - Variable 5.8 mph - N/A   Unknown
4:51 PM 73.9 °F 46.9 °F 38% 29.91 in - Variable 6.9 mph - N/A   Unknown
5:51 PM 73.0 °F 51.1 °F 46% 29.90 in - Variable 6.9 mph - N/A   Unknown
6:51 PM 73.0 °F 51.1 °F 46% 29.90 in - WSW 8.1 mph - N/A   Unknown
7:51 PM 66.9 °F 53.1 °F 61% 29.91 in - Calm Calm - N/A   Unknown
8:51 PM 64.9 °F 53.1 °F 65% 29.93 in - WSW 3.5 mph - N/A   Unknown
9:51 PM 63.0 °F 51.1 °F 65% 29.94 in - West 4.6 mph - N/A   Unknown
10:51 PM 60.1 °F 51.1 °F 72% 29.94 in - WSW 4.6 mph - N/A   Unknown
11:51 PM 57.9 °F 51.1 °F 78% 29.95 in - SW 4.6 mph - N/A   Unknown